When you browse on this site, cookies collect data to enhance your experience and personalize the content and advertising you see.
Visit our Privacy Policy to learn more. By continuing to use the site, you agree to this use of cookies and data.
  • In Slovakia
  • List of Countries
  • For 7 days
  • Water Temperature
  • Weather Map
  • Weather Widgets
  • user-avatar
    Login

    Hourly Weather Parakou

    Today, 9 December, Monday

    Time Temperature Precipitation Wind Pressure Humidity
    00:00 +26°C° 0 mm 1 mps 727 mmHg 21%
    01:00 +25°C° 0 mm 1 mps 727 mmHg 21%
    02:00 +24°C° 0 mm 1 mps 727 mmHg 22%
    03:00 +22°C° 0 mm 0 mps 726 mmHg 22%
    04:00 +21°C° 0 mm 0 mps 727 mmHg 23%
    05:00 +21°C° 0 mm 0 mps 727 mmHg 24%
    06:00 +21°C° 0 mm 0 mps 727 mmHg 25%
    07:00 +23°C° 0 mm 0 mps 728 mmHg 24%
    08:00 +26°C° 0 mm 0 mps 729 mmHg 22%
    09:00 +31°C° 0 mm 1 mps 729 mmHg 20%
    10:00 +33°C° 0 mm 1 mps 729 mmHg 18%
    11:00 +36°C° 0 mm 1 mps 728 mmHg 16%
    12:00 +39°C° 0 mm 1 mps 727 mmHg 14%
    13:00 +39°C° 0 mm 1 mps 727 mmHg 13%
    14:00 +39°C° 0 mm 1 mps 726 mmHg 13%
    15:00 +39°C° 0 mm 1 mps 725 mmHg 13%
    16:00 +34°C° 0 mm 0 mps 725 mmHg 15%
    17:00 +31°C° 0 mm 0 mps 725 mmHg 17%
    18:00 +29°C° 0 mm 0 mps 725 mmHg 19%
    19:00 +28°C° 0 mm 0 mps 726 mmHg 20%
    20:00 +27°C° 0 mm 0 mps 726 mmHg 21%
    21:00 +28°C° 0 mm 1 mps 727 mmHg 22%
    22:00 +28°C° 0 mm 1 mps 727 mmHg 23%
    23:00 +27°C° 0 mm 1 mps 727 mmHg 24%

    Tomorrow, 10 December, Tuesday

    Time Temperature Precipitation Wind Pressure Humidity
    00:00 +27°C° 0 mm 1 mps 727 mmHg 24%
    01:00 +26°C° 0 mm 1 mps 727 mmHg 25%
    02:00 +25°C° 0 mm 1 mps 726 mmHg 27%
    03:00 +25°C° 0 mm 1 mps 726 mmHg 28%
    04:00 +24°C° 0 mm 1 mps 726 mmHg 30%
    05:00 +24°C° 0 mm 1 mps 727 mmHg 31%
    06:00 +24°C° 0 mm 1 mps 727 mmHg 32%
    07:00 +26°C° 0 mm 1 mps 727 mmHg 31%
    08:00 +27°C° 0 mm 0 mps 728 mmHg 29%
    09:00 +30°C° 0 mm 0 mps 729 mmHg 28%
    10:00 +34°C° 0 mm 1 mps 728 mmHg 23%
    11:00 +35°C° 0 mm 1 mps 728 mmHg 18%
    12:00 +38°C° 0 mm 2 mps 727 mmHg 13%
    13:00 +38°C° 0 mm 2 mps 726 mmHg 12%
    14:00 +37°C° 0 mm 1 mps 725 mmHg 11%
    15:00 +39°C° 0 mm 1 mps 725 mmHg 10%
    16:00 +35°C° 0 mm 1 mps 725 mmHg 12%
    17:00 +33°C° 0 mm 1 mps 725 mmHg 14%
    18:00 +31°C° 0 mm 1 mps 725 mmHg 15%
    19:00 +30°C° 0 mm 1 mps 725 mmHg 16%
    20:00 +29°C° 0 mm 1 mps 726 mmHg 17%
    21:00 +28°C° 0 mm 1 mps 727 mmHg 18%
    22:00 +27°C° 0 mm 1 mps 726 mmHg 18%
    23:00 +27°C° 0 mm 1 mps 726 mmHg 19%

    Day after tomorrow, 11 December, Wednesday

    Time Temperature Precipitation Wind Pressure Humidity
    00:00 +26°C° 0 mm 1 mps 726 mmHg 20%
    01:00 +25°C° 0 mm 1 mps 726 mmHg 24%
    02:00 +25°C° 0 mm 1 mps 726 mmHg 28%
    03:00 +24°C° 0 mm 1 mps 726 mmHg 32%
    04:00 +24°C° 0 mm 1 mps 726 mmHg 44%
    05:00 +23°C° 0 mm 1 mps 727 mmHg 56%
    06:00 +23°C° 0 mm 1 mps 727 mmHg 68%
    07:00 +25°C° 0 mm 1 mps 727 mmHg 63%
    08:00 +28°C° 0 mm 1 mps 728 mmHg 59%
    09:00 +31°C° 0 mm 1 mps 728 mmHg 54%
    10:00 +33°C° 0 mm 1 mps 728 mmHg 43%
    11:00 +36°C° 0 mm 1 mps 728 mmHg 31%
    12:00 +37°C° 0 mm 0 mps 727 mmHg 20%
    13:00 +40°C° 0 mm 1 mps 726 mmHg 18%
    14:00 +39°C° 0 mm 1 mps 725 mmHg 17%
    15:00 +39°C° 0 mm 1 mps 725 mmHg 16%
    16:00 +36°C° 0 mm 1 mps 725 mmHg 17%
    17:00 +34°C° 0 mm 1 mps 725 mmHg 18%
    18:00 +32°C° 0 mm 1 mps 725 mmHg 20%
    19:00 +31°C° 0 mm 1 mps 725 mmHg 19%
    20:00 +30°C° 0 mm 1 mps 726 mmHg 18%
    21:00 +29°C° 0 mm 2 mps 726 mmHg 17%
    22:00 +28°C° 0 mm 2 mps 726 mmHg 18%
    23:00 +27°C° 0 mm 1 mps 727 mmHg 19%

    12 December, Thursday

    Time Temperature Precipitation Wind Pressure Humidity
    00:00 +26°C° 0 mm 1 mps 727 mmHg 20%
    01:00 +26°C° 0 mm 1 mps 726 mmHg 23%
    02:00 +25°C° 0 mm 1 mps 726 mmHg 26%
    03:00 +25°C° 0 mm 1 mps 726 mmHg 29%
    04:00 +24°C° 0 mm 1 mps 726 mmHg 39%
    05:00 +24°C° 0 mm 1 mps 726 mmHg 49%
    06:00 +24°C° 0 mm 1 mps 727 mmHg 59%
    07:00 +26°C° 0 mm 1 mps 727 mmHg 58%
    08:00 +28°C° 0 mm 1 mps 728 mmHg 57%
    09:00 +31°C° 0 mm 2 mps 728 mmHg 56%
    10:00 +34°C° 0 mm 2 mps 728 mmHg 45%
    11:00 +36°C° 0 mm 2 mps 727 mmHg 34%
    12:00 +38°C° 0 mm 2 mps 727 mmHg 23%
    13:00 +38°C° 0 mm 2 mps 726 mmHg 21%
    14:00 +39°C° 0 mm 1 mps 726 mmHg 19%
    15:00 +39°C° 0 mm 1 mps 725 mmHg 17%
    16:00 +36°C° 0 mm 1 mps 725 mmHg 19%
    17:00 +34°C° 0 mm 1 mps 725 mmHg 20%
    18:00 +32°C° 0 mm 1 mps 725 mmHg 21%
    19:00 +31°C° 0 mm 1 mps 726 mmHg 21%
    20:00 +30°C° 0 mm 1 mps 726 mmHg 20%
    21:00 +28°C° 0 mm 2 mps 727 mmHg 19%
    22:00 +27°C° 0 mm 1 mps 727 mmHg 19%
    23:00 +27°C° 0 mm 1 mps 727 mmHg 19%

    13 December, Friday

    Time Temperature Precipitation Wind Pressure Humidity
    00:00 +26°C° 0 mm 1 mps 727 mmHg 19%
    01:00 +25°C° 0 mm 1 mps 727 mmHg 20%
    02:00 +24°C° 0 mm 1 mps 726 mmHg 20%
    03:00 +24°C° 0 mm 1 mps 726 mmHg 21%
    04:00 +23°C° 0 mm 1 mps 727 mmHg 22%
    05:00 +23°C° 0 mm 1 mps 727 mmHg 23%
    06:00 +22°C° 0 mm 1 mps 727 mmHg 23%
    07:00 +25°C° 0 mm 2 mps 728 mmHg 21%
    08:00 +27°C° 0 mm 2 mps 728 mmHg 19%
    09:00 +30°C° 0 mm 2 mps 729 mmHg 17%
    10:00 +33°C° 0 mm 3 mps 728 mmHg 15%
    11:00 +35°C° 0 mm 3 mps 728 mmHg 13%
    12:00 +37°C° 0 mm 3 mps 727 mmHg 11%
    13:00 +37°C° 0 mm 3 mps 727 mmHg 10%
    14:00 +38°C° 0 mm 3 mps 726 mmHg 10%
    15:00 +38°C° 0 mm 2 mps 725 mmHg 10%
    16:00 +36°C° 0 mm 2 mps 725 mmHg 12%
    17:00 +34°C° 0 mm 2 mps 726 mmHg 13%
    18:00 +31°C° 0 mm 2 mps 726 mmHg 15%
    19:00 +30°C° 0 mm 2 mps 726 mmHg 14%
    20:00 +28°C° 0 mm 2 mps 727 mmHg 14%
    21:00 +27°C° 0 mm 2 mps 728 mmHg 14%
    22:00 +27°C° 0 mm 3 mps 728 mmHg 14%
    23:00 +26°C° 0 mm 3 mps 728 mmHg 13%

    14 December, Saturday

    Time Temperature Precipitation Wind Pressure Humidity
    00:00 +25°C° 0 mm 3 mps 727 mmHg 13%
    01:00 +25°C° 0 mm 2 mps 727 mmHg 14%
    02:00 +24°C° 0 mm 2 mps 727 mmHg 14%
    03:00 +23°C° 0 mm 1 mps 727 mmHg 15%
    04:00 +22°C° 0 mm 1 mps 727 mmHg 15%
    05:00 +22°C° 0 mm 1 mps 727 mmHg 16%
    06:00 +21°C° 0 mm 1 mps 728 mmHg 16%
    07:00 +24°C° 0 mm 1 mps 728 mmHg 15%
    08:00 +26°C° 0 mm 2 mps 728 mmHg 13%
    09:00 +29°C° 0 mm 2 mps 729 mmHg 12%
    10:00 +31°C° 0 mm 2 mps 728 mmHg 10%
    11:00 +34°C° 0 mm 2 mps 728 mmHg 9%
    12:00 +36°C° 0 mm 2 mps 728 mmHg 8%
    13:00 +37°C° 0 mm 2 mps 727 mmHg 8%
    14:00 +37°C° 0 mm 2 mps 726 mmHg 8%
    15:00 +38°C° 0 mm 2 mps 725 mmHg 8%
    16:00 +35°C° 0 mm 2 mps 725 mmHg 9%
    17:00 +32°C° 0 mm 2 mps 726 mmHg 11%
    18:00 +30°C° 0 mm 2 mps 726 mmHg 12%
    19:00 +29°C° 0 mm 2 mps 726 mmHg 12%
    20:00 +28°C° 0 mm 2 mps 727 mmHg 12%
    21:00 +27°C° 0 mm 2 mps 727 mmHg 12%
    22:00 +26°C° 0 mm 2 mps 727 mmHg 13%
    23:00 +25°C° 0 mm 2 mps 727 mmHg 14%
    Show more